When you browse on this site, cookies collect data to enhance your experience and personalize the content and advertising you see.
Visit our Privacy Policy to learn more. By continuing to use the site, you agree to this use of cookies and data.
  • In Austria
  • List of Countries
  • For 7 days
  • Water Temperature
  • Weather Map
  • News
  • Weather Widgets
  • user-avatar
    Login

    Hourly Weather Sesquile

    Today, 23 February, Sunday

    Time Temperature Precipitation Wind Pressure Humidity
    00:00 +12°C° 0.1 mm 0 mps 557 mmHg 96%
    01:00 +12°C° 0 mm 0 mps 557 mmHg 98%
    02:00 +12°C° 0 mm 0 mps 557 mmHg 97%
    03:00 +12°C° 0 mm 0 mps 556 mmHg 97%
    04:00 +12°C° 0 mm 0 mps 556 mmHg 96%
    05:00 +12°C° 0.1 mm 0 mps 557 mmHg 96%
    06:00 +12°C° 0.1 mm 0 mps 557 mmHg 96%
    07:00 +12°C° 0.1 mm 0 mps 557 mmHg 95%
    08:00 +15°C° 0.2 mm 1 mps 558 mmHg 92%
    09:00 +16°C° 0.2 mm 1 mps 559 mmHg 88%
    10:00 +18°C° 0.2 mm 1 mps 560 mmHg 85%
    11:00 +18°C° 0.7 mm 1 mps 559 mmHg 84%
    12:00 +19°C° 0.7 mm 1 mps 559 mmHg 82%
    13:00 +19°C° 0.7 mm 1 mps 559 mmHg 81%
    14:00 +19°C° 1.2 mm 1 mps 558 mmHg 82%
    15:00 +19°C° 1.2 mm 1 mps 558 mmHg 84%
    16:00 +18°C° 1.2 mm 1 mps 557 mmHg 85%
    17:00 +16°C° 1.1 mm 1 mps 557 mmHg 89%
    18:00 +14°C° 1.1 mm 0 mps 557 mmHg 93%
    19:00 +13°C° 1.1 mm 0 mps 557 mmHg 97%
    20:00 +13°C° 0.7 mm 0 mps 557 mmHg 97%
    21:00 +13°C° 0.7 mm 0 mps 557 mmHg 97%
    22:00 +14°C° 0.7 mm 1 mps 557 mmHg 97%
    23:00 +13°C° 0.4 mm 0 mps 557 mmHg 97%

    Tomorrow, 24 February, Monday

    Time Temperature Precipitation Wind Pressure Humidity
    00:00 +13°C° 0.4 mm 0 mps 557 mmHg 97%
    01:00 +13°C° 0.4 mm 0 mps 557 mmHg 97%
    02:00 +12°C° 0.2 mm 0 mps 557 mmHg 97%
    03:00 +12°C° 0.2 mm 0 mps 556 mmHg 96%
    04:00 +12°C° 0.2 mm 0 mps 556 mmHg 96%
    05:00 +12°C° 0 mm 0 mps 556 mmHg 95%
    06:00 +13°C° 0 mm 0 mps 557 mmHg 95%
    07:00 +13°C° 0 mm 0 mps 557 mmHg 94%
    08:00 +14°C° 0.1 mm 0 mps 558 mmHg 90%
    09:00 +16°C° 0.1 mm 1 mps 559 mmHg 87%
    10:00 +18°C° 0.1 mm 1 mps 560 mmHg 84%
    11:00 +19°C° 0.6 mm 1 mps 559 mmHg 80%
    12:00 +20°C° 0.6 mm 1 mps 559 mmHg 76%
    13:00 +21°C° 0.6 mm 1 mps 559 mmHg 73%
    14:00 +20°C° 1.4 mm 1 mps 558 mmHg 77%
    15:00 +19°C° 1.4 mm 1 mps 557 mmHg 81%
    16:00 +19°C° 1.4 mm 1 mps 556 mmHg 85%
    17:00 +16°C° 1.3 mm 1 mps 556 mmHg 89%
    18:00 +15°C° 1.3 mm 1 mps 556 mmHg 92%
    19:00 +13°C° 1.3 mm 0 mps 556 mmHg 96%
    20:00 +13°C° 0.3 mm 0 mps 556 mmHg 96%
    21:00 +12°C° 0.3 mm 0 mps 557 mmHg 96%
    22:00 +12°C° 0.3 mm 0 mps 557 mmHg 96%
    23:00 +12°C° 0 mm 0 mps 557 mmHg 96%

    Day after tomorrow, 25 February, Tuesday

    Time Temperature Precipitation Wind Pressure Humidity
    00:00 +12°C° 0 mm 0 mps 557 mmHg 97%
    01:00 +12°C° 0 mm 0 mps 556 mmHg 97%
    02:00 +12°C° 0 mm 0 mps 556 mmHg 96%
    03:00 +12°C° 0 mm 0 mps 556 mmHg 95%
    04:00 +12°C° 0 mm 0 mps 556 mmHg 94%
    05:00 +12°C° 0 mm 0 mps 556 mmHg 93%
    06:00 +12°C° 0 mm 0 mps 556 mmHg 93%
    07:00 +12°C° 0 mm 0 mps 557 mmHg 92%
    08:00 +14°C° 0 mm 0 mps 558 mmHg 84%
    09:00 +16°C° 0 mm 0 mps 559 mmHg 76%
    10:00 +20°C° 0 mm 1 mps 561 mmHg 69%
    11:00 +21°C° 0.3 mm 1 mps 560 mmHg 67%
    12:00 +21°C° 0.3 mm 1 mps 560 mmHg 66%
    13:00 +21°C° 0.3 mm 1 mps 559 mmHg 65%
    14:00 +20°C° 0.9 mm 1 mps 558 mmHg 71%
    15:00 +20°C° 0.9 mm 1 mps 557 mmHg 77%
    16:00 +19°C° 0.9 mm 1 mps 557 mmHg 82%
    17:00 +18°C° 0.5 mm 1 mps 556 mmHg 87%
    18:00 +15°C° 0.5 mm 1 mps 556 mmHg 91%
    19:00 +13°C° 0.5 mm 0 mps 555 mmHg 96%
    20:00 +13°C° 0 mm 0 mps 556 mmHg 96%
    21:00 +12°C° 0 mm 0 mps 556 mmHg 96%
    22:00 +12°C° 0 mm 0 mps 556 mmHg 96%
    23:00 +12°C° 0 mm 0 mps 556 mmHg 96%

    26 February, Wednesday

    Time Temperature Precipitation Wind Pressure Humidity
    00:00 +12°C° 0 mm 0 mps 556 mmHg 95%
    01:00 +11°C° 0 mm 0 mps 556 mmHg 95%
    02:00 +11°C° 0 mm 0 mps 555 mmHg 95%
    03:00 +11°C° 0 mm 0 mps 555 mmHg 94%
    04:00 +10°C° 0 mm 0 mps 555 mmHg 94%
    05:00 +11°C° 0 mm 0 mps 555 mmHg 92%
    06:00 +11°C° 0 mm 0 mps 556 mmHg 90%
    07:00 +11°C° 0 mm 0 mps 557 mmHg 89%
    08:00 +14°C° 0 mm 0 mps 558 mmHg 77%
    09:00 +17°C° 0 mm 0 mps 560 mmHg 66%
    10:00 +19°C° 0 mm 0 mps 562 mmHg 54%
    11:00 +22°C° 0 mm 1 mps 561 mmHg 52%
    12:00 +23°C° 0 mm 1 mps 561 mmHg 50%
    13:00 +23°C° 0 mm 1 mps 560 mmHg 47%
    14:00 +22°C° 0.2 mm 1 mps 559 mmHg 55%
    15:00 +20°C° 0.2 mm 2 mps 558 mmHg 63%
    16:00 +19°C° 0.2 mm 2 mps 557 mmHg 71%
    17:00 +19°C° 0.5 mm 1 mps 557 mmHg 79%
    18:00 +16°C° 0.5 mm 1 mps 557 mmHg 87%
    19:00 +14°C° 0.5 mm 0 mps 556 mmHg 94%
    20:00 +13°C° 0.3 mm 0 mps 557 mmHg 95%
    21:00 +13°C° 0.3 mm 0 mps 557 mmHg 95%
    22:00 +13°C° 0.3 mm 0 mps 557 mmHg 95%
    23:00 +12°C° 0.1 mm 0 mps 557 mmHg 95%

    27 February, Thursday

    Time Temperature Precipitation Wind Pressure Humidity
    00:00 +12°C° 0.1 mm 0 mps 556 mmHg 96%
    01:00 +12°C° 0.1 mm 0 mps 556 mmHg 96%
    02:00 +12°C° 0.1 mm 0 mps 556 mmHg 96%
    03:00 +12°C° 0.1 mm 0 mps 556 mmHg 95%
    04:00 +12°C° 0.1 mm 0 mps 555 mmHg 95%
    05:00 +12°C° 0.1 mm 0 mps 556 mmHg 94%
    06:00 +12°C° 0.1 mm 0 mps 557 mmHg 93%
    07:00 +12°C° 0.1 mm 0 mps 557 mmHg 92%
    08:00 +14°C° 0.1 mm 0 mps 558 mmHg 85%
    09:00 +16°C° 0.1 mm 0 mps 560 mmHg 79%
    10:00 +20°C° 0.1 mm 1 mps 561 mmHg 72%
    11:00 +20°C° 0.3 mm 1 mps 560 mmHg 71%
    12:00 +20°C° 0.3 mm 1 mps 559 mmHg 70%
    13:00 +21°C° 0.3 mm 1 mps 559 mmHg 69%
    14:00 +20°C° 0.8 mm 1 mps 558 mmHg 73%
    15:00 +19°C° 0.8 mm 1 mps 557 mmHg 77%
    16:00 +19°C° 0.8 mm 1 mps 557 mmHg 81%
    17:00 +16°C° 0.7 mm 1 mps 556 mmHg 86%
    18:00 +15°C° 0.7 mm 1 mps 556 mmHg 90%
    19:00 +13°C° 0.7 mm 0 mps 556 mmHg 95%
    20:00 +13°C° 0.4 mm 0 mps 556 mmHg 95%
    21:00 +13°C° 0.4 mm 0 mps 557 mmHg 95%
    22:00 +13°C° 0.4 mm 0 mps 557 mmHg 95%
    23:00 +12°C° 0.1 mm 0 mps 557 mmHg 95%

    28 February, Friday

    Time Temperature Precipitation Wind Pressure Humidity
    00:00 +12°C° 0.1 mm 0 mps 557 mmHg 96%
    01:00 +12°C° 0.1 mm 0 mps 556 mmHg 96%
    02:00 +12°C° 0.1 mm 0 mps 556 mmHg 95%
    03:00 +12°C° 0.1 mm 0 mps 556 mmHg 95%
    04:00 +12°C° 0.1 mm 0 mps 556 mmHg 95%
    05:00 +12°C° 0.1 mm 0 mps 556 mmHg 95%
    06:00 +12°C° 0.1 mm 0 mps 557 mmHg 94%
    07:00 +12°C° 0.1 mm 0 mps 557 mmHg 94%
    08:00 +14°C° 0.1 mm 1 mps 558 mmHg 89%
    09:00 +15°C° 0.1 mm 1 mps 559 mmHg 85%
    10:00 +16°C° 0.1 mm 1 mps 559 mmHg 81%
    11:00 +19°C° 0.2 mm 1 mps 559 mmHg 75%
    12:00 +20°C° 0.2 mm 1 mps 559 mmHg 70%
    13:00 +21°C° 0.2 mm 1 mps 559 mmHg 65%
    14:00 +21°C° 0.2 mm 1 mps 559 mmHg 68%
    15:00 +20°C° 0.2 mm 1 mps 558 mmHg 72%
    16:00 +19°C° 0.2 mm 1 mps 557 mmHg 75%
    17:00 +18°C° 0.2 mm 1 mps 557 mmHg 82%
    18:00 +16°C° 0.2 mm 1 mps 557 mmHg 88%
    19:00 +15°C° 0.2 mm 1 mps 556 mmHg 94%
    20:00 +14°C° 0.2 mm 0 mps 557 mmHg 94%
    21:00 +13°C° 0.2 mm 0 mps 557 mmHg 95%
    22:00 +13°C° 0.2 mm 0 mps 557 mmHg 95%
    23:00 +13°C° 0.1 mm 0 mps 557 mmHg 95%
    Show more